Location: Gandikunta
(16.3784°N, 80.8378°E)
Time: 22:28:30
(UTC+00:00)

Cosmos 1763 Rocket - Pass Details

Date: 19 May 2025
Orbit: 728 x 775 km, 74.0° (Epoch: 12 June)

Event Time Altitude Azimuth Distance (km) Brightness Sun altitude
Rises 23:29:22 0° 346° (NNW) 3,212 6.9 -8.7°
Reaches altitude 10° 23:31:44 10° 346° (NNW) 2,279 6.1 -8.2°
Maximum altitude 23:36:55 87° 259° (W) 753 3.5 -7.1°
Drops below altitude 10° 23:42:00 10° 168° (SSE) 2,245 5.8 -5.9°
Sets 23:44:20 0° 168° (SSE) 3,160 6.6 -5.4°
